DELTA 1 DEB

Satellite information

Favourite Embed

Satellite Type and Status

DEBRISIN ORBIT

Key statistics

Satellite DELTA 1 DEB at a glance.

Uptime

17291

Days in orbit

Revolutions

≈ 14.3

Per day

Orbit

SSO

Sun Synchronous Orbit

Inclination

98.8

Latest

Satellite identification and parameters

Extended collection of information and parameters for DELTA 1 DEB.

Object identification

Identified? True

Debris? True

Object name: DELTA 1 DEB

International designator: 1978-026AV

Object number (NORAD): 12204

Object ID (CCSDS): 12204

Country: UNITED STATES OF AMERICA (US)

Current information (Y/N): Y

RCS size: SMALL

Orbital parameters

Period: 100.662 minutes

Inclination: 98.7683 deg

SMA: 7168.118 km

Apoapsis: 847.173 km

Periapsis: 732.792 km

RAAN: 204.1615 deg

Eccentricy: 0.0079785

Argument of periapsis: 150.3734 deg

Mean anomaly: 210.2003 deg

Mean motion: 14.30523792 rev/day

Mean motion (dot): 0.00000359 rev/day2

B* drag term: 0.00014972 1/REarth

Two-line elements (TLE)

Creation date: July 6, 2025, 6:05 p.m.

Reference frame: TEME

Reference center: EARTH

Epoch: July 6, 2025, 2:17 p.m. UTC

TLE line 0: 0 DELTA 1 DEB

TLE line 1: 1 12204U 78026AV 25187.59536644 .00000359 00000-0 14972-3 0 9990

TLE line 2: 2 12204 98.7683 204.1615 0079785 150.3734 210.2003 14.30523792308230

Live tracking on map

Real-time ground track for satellite DELTA 1 DEB.

In-orbit conjunctions

A list of the most updated potential collisions computed for object DELTA 1 DEB.

Target Orbit TCA Probability of collision Miss distance Type
DELTA 1 DEB SSO 2024-06-20 10:45:05 0.00017904 207.0 (m) DEBRIS

Associated space launch

Earth observation satellite

DELTA 1 DEB was lifted into orbit during the mission ‘Delta 2910 | Landsat 3’, on board a Delta 2910 space rocket.

The launch took place on March 5, 1978, 5:54 p.m. from Space Launch Complex 2W.

For more information about the launch, click the button.

Launch to space Delta 2910 | Landsat 3
Delta 2910 | Landsat 3

Agency: N/A

Status: Launch Successful

Launch date: March 5, 1978, 5:54 p.m. UTC

Rocket: Delta 2910

Launch pad: Space Launch Complex 2W

Location: Vandenberg SFB, CA, USA

...

Latest news about this satellite

There are no fresh news available about this satellite. Check back as we update our databases every day.


Newsletter sign-up

Weekly statistics, charts and insights to help you stay on top of the space industry.